Location: Unspecified
(0.0000°N, 0.0000°E)
Time: 12:46:27
(UTC+00:00)

CUBESAT XI-V - Pass Details

Date: 15 December 2017
Orbit: 669 x 694 km, 97.9° (Epoch: 18 June)

Event Time Altitude Azimuth Distance (km) Brightness Sun altitude
Rises 03:41:35 0° 164° (SSE) 3,018 ? -30.4°
Reaches altitude 10° 03:43:49 10° 162° (SSE) 2,105 ? -29.9°
Enters shadow 03:47:28 54° 138° (SE) 823 ? -29.0°
